Year,Month,Day,Hour,Minute,Value (Times are PST for temperature in C)
2009,05,21,00,00,6.60
2009,05,21,00,01,6.60
2009,05,21,00,02,6.60
2009,05,21,00,03,6.60
2009,05,21,00,04,6.60
2009,05,21,00,05,6.60
2009,05,21,00,06,6.60
2009,05,21,00,07,6.60
2009,05,21,00,08,6.60
2009,05,21,00,09,6.60
2009,05,21,00,10,6.60
2009,05,21,00,11,6.60
2009,05,21,00,12,6.60
2009,05,21,00,13,6.70
2009,05,21,00,14,6.70
2009,05,21,00,15,6.70
2009,05,21,00,16,6.70
2009,05,21,00,17,6.70
2009,05,21,00,18,6.70
2009,05,21,00,19,6.80
2009,05,21,00,20,6.80
2009,05,21,00,21,6.90
2009,05,21,00,22,6.90
2009,05,21,00,23,7.00
2009,05,21,00,24,7.00
2009,05,21,00,25,7.10
2009,05,21,00,26,7.20
2009,05,21,00,27,7.20
2009,05,21,00,28,7.30
2009,05,21,00,29,7.30
2009,05,21,00,30,7.40
2009,05,21,00,31,7.50
2009,05,21,00,32,7.50
2009,05,21,00,33,7.50
2009,05,21,00,34,7.60
2009,05,21,00,35,7.60
2009,05,21,00,36,7.60
2009,05,21,00,37,7.60
2009,05,21,00,38,7.60
2009,05,21,00,39,7.70
2009,05,21,00,40,7.70
2009,05,21,00,41,7.70
2009,05,21,00,42,7.70
2009,05,21,00,43,7.70
2009,05,21,00,44,7.70
2009,05,21,00,45,7.70
2009,05,21,00,46,7.80
2009,05,21,00,47,7.80
2009,05,21,00,48,7.90
2009,05,21,00,49,8.00
2009,05,21,00,50,8.10
2009,05,21,00,51,8.20
2009,05,21,00,52,8.30
2009,05,21,00,53,8.30
2009,05,21,00,54,8.30
2009,05,21,00,55,8.30
2009,05,21,00,56,8.30
2009,05,21,00,57,8.30
2009,05,21,00,58,8.30
2009,05,21,00,59,8.30
2009,05,21,01,00,8.30
2009,05,21,01,01,8.30
2009,05,21,01,02,8.30
2009,05,21,01,03,8.20
2009,05,21,01,04,8.20
2009,05,21,01,05,8.20
2009,05,21,01,06,8.10
2009,05,21,01,07,8.10
2009,05,21,01,08,8.10
2009,05,21,01,09,8.10
2009,05,21,01,10,8.00
2009,05,21,01,11,8.00
2009,05,21,01,12,8.00
2009,05,21,01,13,8.00
2009,05,21,01,14,8.00
2009,05,21,01,15,7.90
2009,05,21,01,16,7.90
2009,05,21,01,17,7.90
2009,05,21,01,18,7.90
2009,05,21,01,19,7.90
2009,05,21,01,20,7.90
2009,05,21,01,21,7.90
2009,05,21,01,22,7.90
2009,05,21,01,23,7.90
2009,05,21,01,24,7.90
2009,05,21,01,25,7.90
2009,05,21,01,26,7.90
2009,05,21,01,27,7.90
2009,05,21,01,28,7.90
2009,05,21,01,29,7.90
2009,05,21,01,30,7.90
2009,05,21,01,31,7.90
2009,05,21,01,32,7.90
2009,05,21,01,33,7.90
2009,05,21,01,34,7.90
2009,05,21,01,35,7.90
2009,05,21,01,36,7.90
2009,05,21,01,37,7.90
2009,05,21,01,38,7.80
2009,05,21,01,39,7.80
2009,05,21,01,40,7.80
2009,05,21,01,41,7.80
2009,05,21,01,42,7.80
2009,05,21,01,43,7.80
2009,05,21,01,44,7.80
2009,05,21,01,45,7.80
2009,05,21,01,46,7.70
2009,05,21,01,47,7.70
2009,05,21,01,48,7.70
2009,05,21,01,49,7.70
2009,05,21,01,50,7.60
2009,05,21,01,51,7.60
2009,05,21,01,52,7.60
2009,05,21,01,53,7.60
2009,05,21,01,54,7.50
2009,05,21,01,55,7.50
2009,05,21,01,56,7.50
2009,05,21,01,57,7.50
2009,05,21,01,58,7.40
2009,05,21,01,59,7.40
2009,05,21,02,00,7.40
2009,05,21,02,01,7.40
2009,05,21,02,02,7.40
2009,05,21,02,03,7.40
2009,05,21,02,04,7.40
2009,05,21,02,05,7.30
2009,05,21,02,06,7.30
2009,05,21,02,07,7.30
2009,05,21,02,08,7.30
2009,05,21,02,09,7.30
2009,05,21,02,10,7.30
2009,05,21,02,11,7.20
2009,05,21,02,12,7.30
2009,05,21,02,13,7.30
2009,05,21,02,14,7.30
2009,05,21,02,15,7.30
2009,05,21,02,16,7.30
2009,05,21,02,17,7.30
2009,05,21,02,18,7.30
2009,05,21,02,19,7.40
2009,05,21,02,20,7.40
2009,05,21,02,21,7.40
2009,05,21,02,22,7.40
2009,05,21,02,23,7.40
2009,05,21,02,24,7.40
2009,05,21,02,25,7.40
2009,05,21,02,26,7.50
2009,05,21,02,27,7.50
2009,05,21,02,28,7.40
2009,05,21,02,29,7.50
2009,05,21,02,30,7.50
2009,05,21,02,31,7.50
2009,05,21,02,32,7.40
2009,05,21,02,33,7.40
2009,05,21,02,34,7.40
2009,05,21,02,35,7.40
2009,05,21,02,36,7.40
2009,05,21,02,37,7.40
2009,05,21,02,38,7.50
2009,05,21,02,39,7.50
2009,05,21,02,40,7.50
2009,05,21,02,41,7.40
2009,05,21,02,42,7.40
2009,05,21,02,43,7.40
2009,05,21,02,44,7.40
2009,05,21,02,45,7.40
2009,05,21,02,46,7.40
2009,05,21,02,47,7.40
2009,05,21,02,48,7.30
2009,05,21,02,49,7.30
2009,05,21,02,50,7.30
2009,05,21,02,51,7.20
2009,05,21,02,52,7.20
2009,05,21,02,53,7.20
2009,05,21,02,54,7.20
2009,05,21,02,55,7.20
2009,05,21,02,56,7.20
2009,05,21,02,57,7.20
2009,05,21,02,58,7.20
2009,05,21,02,59,7.20
2009,05,21,03,00,7.30
2009,05,21,03,01,7.30
2009,05,21,03,02,7.30
2009,05,21,03,03,7.30
2009,05,21,03,04,7.40
2009,05,21,03,05,7.40
2009,05,21,03,06,7.40
2009,05,21,03,07,7.40
2009,05,21,03,08,7.30
2009,05,21,03,09,7.40
2009,05,21,03,10,7.50
2009,05,21,03,11,7.60
2009,05,21,03,12,7.60
2009,05,21,03,13,7.70
2009,05,21,03,14,7.80
2009,05,21,03,15,7.90
2009,05,21,03,16,8.00
2009,05,21,03,17,8.10
2009,05,21,03,18,8.10
2009,05,21,03,19,8.10
2009,05,21,03,20,8.20
2009,05,21,03,21,8.10
2009,05,21,03,22,8.10
2009,05,21,03,23,8.10
2009,05,21,03,24,8.10
2009,05,21,03,25,8.10
2009,05,21,03,26,8.10
2009,05,21,03,27,8.10
2009,05,21,03,28,8.10
2009,05,21,03,29,8.00
2009,05,21,03,30,8.00
2009,05,21,03,31,8.00
2009,05,21,03,32,7.90
2009,05,21,03,33,7.90
2009,05,21,03,34,7.90
2009,05,21,03,35,7.90
2009,05,21,03,36,7.90
2009,05,21,03,37,7.90
2009,05,21,03,38,7.80
2009,05,21,03,39,7.80
2009,05,21,03,40,7.80
2009,05,21,03,41,7.80
2009,05,21,03,42,7.70
2009,05,21,03,43,7.70
2009,05,21,03,44,7.70
2009,05,21,03,45,7.70
2009,05,21,03,46,7.70
2009,05,21,03,47,7.70
2009,05,21,03,48,7.70
2009,05,21,03,49,7.70
2009,05,21,03,50,7.70
2009,05,21,03,51,7.70
2009,05,21,03,52,7.60
2009,05,21,03,53,7.60
2009,05,21,03,54,7.60
2009,05,21,03,55,7.60
2009,05,21,03,56,7.60
2009,05,21,03,57,7.60
2009,05,21,03,58,7.60
2009,05,21,03,59,7.60
2009,05,21,04,00,7.60
2009,05,21,04,01,7.60
2009,05,21,04,02,7.60
2009,05,21,04,03,7.60
2009,05,21,04,04,7.70
2009,05,21,04,05,7.70
2009,05,21,04,06,7.70
2009,05,21,04,07,7.70
2009,05,21,04,08,7.70
2009,05,21,04,09,7.70
2009,05,21,04,10,7.70
2009,05,21,04,11,7.80
2009,05,21,04,12,7.80
2009,05,21,04,13,7.80
2009,05,21,04,14,7.70
2009,05,21,04,15,7.70
2009,05,21,04,16,7.70
2009,05,21,04,17,7.70
2009,05,21,04,18,7.70
2009,05,21,04,19,7.70
2009,05,21,04,20,7.60
2009,05,21,04,21,7.60
2009,05,21,04,22,7.60
2009,05,21,04,23,7.60
2009,05,21,04,24,7.60
2009,05,21,04,25,7.60
2009,05,21,04,26,7.60
2009,05,21,04,27,7.60
2009,05,21,04,28,7.50
2009,05,21,04,29,7.40
2009,05,21,04,30,7.30
2009,05,21,04,31,7.20
2009,05,21,04,32,7.20
2009,05,21,04,33,7.10
2009,05,21,04,34,7.00
2009,05,21,04,35,7.00
2009,05,21,04,36,6.90
2009,05,21,04,37,6.90
2009,05,21,04,38,6.80
2009,05,21,04,39,6.80
2009,05,21,04,40,6.80
2009,05,21,04,41,6.80
2009,05,21,04,42,6.80
2009,05,21,04,43,6.80
2009,05,21,04,44,6.90
2009,05,21,04,45,6.90
2009,05,21,04,46,6.90
2009,05,21,04,47,6.90
2009,05,21,04,48,6.90
2009,05,21,04,49,7.00
2009,05,21,04,50,7.00
2009,05,21,04,51,7.10
2009,05,21,04,52,7.10
2009,05,21,04,53,7.10
2009,05,21,04,54,7.10
2009,05,21,04,55,7.10
2009,05,21,04,56,7.20
2009,05,21,04,57,7.20
2009,05,21,04,58,7.20
2009,05,21,04,59,7.20
2009,05,21,05,00,7.20
2009,05,21,05,01,7.20
2009,05,21,05,02,7.20
2009,05,21,05,03,7.20
2009,05,21,05,04,7.20
2009,05,21,05,05,7.20
2009,05,21,05,06,7.20
2009,05,21,05,07,7.20
2009,05,21,05,08,7.20
2009,05,21,05,09,7.20
2009,05,21,05,10,7.20
2009,05,21,05,11,7.20
2009,05,21,05,12,7.20
2009,05,21,05,13,7.20
2009,05,21,05,14,7.20
2009,05,21,05,15,7.20
2009,05,21,05,16,7.20
2009,05,21,05,17,7.20
2009,05,21,05,18,7.20
2009,05,21,05,19,7.20
2009,05,21,05,20,7.10
2009,05,21,05,21,7.10
2009,05,21,05,22,7.10
2009,05,21,05,23,7.10
2009,05,21,05,24,7.10
2009,05,21,05,25,7.20
2009,05,21,05,26,7.20
2009,05,21,05,27,7.20
2009,05,21,05,28,7.10
2009,05,21,05,29,7.10
2009,05,21,05,30,7.10
2009,05,21,05,31,7.10
2009,05,21,05,32,7.20
2009,05,21,05,33,7.20
2009,05,21,05,34,7.20
2009,05,21,05,35,7.30
2009,05,21,05,36,7.30
2009,05,21,05,37,7.40
2009,05,21,05,38,7.40
2009,05,21,05,39,7.50
2009,05,21,05,40,7.50
2009,05,21,05,41,7.50
2009,05,21,05,42,7.50
2009,05,21,05,43,7.50
2009,05,21,05,44,7.50
2009,05,21,05,45,7.50
2009,05,21,05,46,7.50
2009,05,21,05,47,7.50
2009,05,21,05,48,7.50
2009,05,21,05,49,7.50
2009,05,21,05,50,7.50
2009,05,21,05,51,7.50
2009,05,21,05,52,7.60
2009,05,21,05,53,7.60
2009,05,21,05,54,7.70
2009,05,21,05,55,7.70
2009,05,21,05,56,7.70
2009,05,21,05,57,7.80
2009,05,21,05,58,7.80
2009,05,21,05,59,7.80
2009,05,21,06,00,7.80
2009,05,21,06,01,7.80
2009,05,21,06,02,7.90
2009,05,21,06,03,7.90
2009,05,21,06,04,7.90
2009,05,21,06,05,7.90
2009,05,21,06,06,8.00
2009,05,21,06,07,8.00
2009,05,21,06,08,8.10
2009,05,21,06,09,8.10
2009,05,21,06,10,8.10
2009,05,21,06,11,8.20
2009,05,21,06,12,8.20
2009,05,21,06,13,8.20
2009,05,21,06,14,8.20
2009,05,21,06,15,8.30
2009,05,21,06,16,8.30
2009,05,21,06,17,8.30
2009,05,21,06,18,8.30
2009,05,21,06,19,8.30
2009,05,21,06,20,8.30
2009,05,21,06,21,8.30
2009,05,21,06,22,8.30
2009,05,21,06,23,8.40
2009,05,21,06,24,8.40
2009,05,21,06,25,8.40
2009,05,21,06,26,8.40
2009,05,21,06,27,8.40
2009,05,21,06,28,8.40
2009,05,21,06,29,8.40
2009,05,21,06,30,8.50
2009,05,21,06,31,8.50
2009,05,21,06,32,8.50
2009,05,21,06,33,8.50
2009,05,21,06,34,8.50
2009,05,21,06,35,8.50
2009,05,21,06,36,8.50
2009,05,21,06,37,8.50
2009,05,21,06,38,8.50
2009,05,21,06,39,8.50
2009,05,21,06,40,8.50
2009,05,21,06,41,8.50
2009,05,21,06,42,8.50
2009,05,21,06,43,8.50
2009,05,21,06,44,8.50
2009,05,21,06,45,8.50
2009,05,21,06,46,8.50
2009,05,21,06,47,8.50
2009,05,21,06,48,8.50
2009,05,21,06,49,8.50
2009,05,21,06,50,8.50
2009,05,21,06,51,8.50
2009,05,21,06,52,8.60
2009,05,21,06,53,8.60
2009,05,21,06,54,8.60
2009,05,21,06,55,8.60
2009,05,21,06,56,8.60
2009,05,21,06,57,8.60
2009,05,21,06,58,8.60
2009,05,21,06,59,8.60
2009,05,21,07,00,8.60
2009,05,21,07,01,8.60
2009,05,21,07,02,8.60
2009,05,21,07,03,8.60
2009,05,21,07,04,8.60
2009,05,21,07,05,8.60
2009,05,21,07,06,8.60
2009,05,21,07,07,8.70
2009,05,21,07,08,8.70
2009,05,21,07,09,8.70
2009,05,21,07,10,8.70
2009,05,21,07,11,8.70
2009,05,21,07,12,8.70
2009,05,21,07,13,8.80
2009,05,21,07,14,8.80
2009,05,21,07,15,8.80
2009,05,21,07,16,8.80
2009,05,21,07,17,8.90
2009,05,21,07,18,8.90
2009,05,21,07,19,9.00
2009,05,21,07,20,9.00
2009,05,21,07,21,9.00
2009,05,21,07,22,9.10
2009,05,21,07,23,9.10
2009,05,21,07,24,9.10
2009,05,21,07,25,9.10
2009,05,21,07,26,9.10
2009,05,21,07,27,9.10
2009,05,21,07,28,9.10
2009,05,21,07,29,9.10
2009,05,21,07,30,9.10
2009,05,21,07,31,9.20
2009,05,21,07,32,9.20
2009,05,21,07,33,9.20
2009,05,21,07,34,9.30
2009,05,21,07,35,9.30
2009,05,21,07,36,9.30
2009,05,21,07,37,9.40
2009,05,21,07,38,9.40
2009,05,21,07,39,9.50
2009,05,21,07,40,9.50
2009,05,21,07,41,9.60
2009,05,21,07,42,9.60
2009,05,21,07,43,9.60
2009,05,21,07,44,9.60
2009,05,21,07,45,9.70
2009,05,21,07,46,9.70
2009,05,21,07,47,9.70
2009,05,21,07,48,9.70
2009,05,21,07,49,9.70
2009,05,21,07,50,9.70
2009,05,21,07,51,9.70
2009,05,21,07,52,9.70
2009,05,21,07,53,9.60
2009,05,21,07,54,9.60
2009,05,21,07,55,9.60
2009,05,21,07,56,9.60
2009,05,21,07,57,9.60
2009,05,21,07,58,9.50
2009,05,21,07,59,9.50
2009,05,21,08,00,9.50
2009,05,21,08,01,9.50
2009,05,21,08,02,9.50
2009,05,21,08,03,9.50
2009,05,21,08,04,9.50
2009,05,21,08,05,9.60
2009,05,21,08,06,9.60
2009,05,21,08,07,9.60
2009,05,21,08,08,9.60
2009,05,21,08,09,9.60
2009,05,21,08,10,9.60
2009,05,21,08,11,9.60
2009,05,21,08,12,9.60
2009,05,21,08,13,9.60
2009,05,21,08,14,9.70
2009,05,21,08,15,9.70
2009,05,21,08,16,9.70
2009,05,21,08,17,9.70
2009,05,21,08,18,9.80
2009,05,21,08,19,9.80
2009,05,21,08,20,9.80
2009,05,21,08,21,9.80
2009,05,21,08,22,9.80
2009,05,21,08,23,9.80
2009,05,21,08,24,9.90
2009,05,21,08,25,9.90
2009,05,21,08,26,9.90
2009,05,21,08,27,9.90
2009,05,21,08,28,10.00
2009,05,21,08,29,10.00
2009,05,21,08,30,10.00
2009,05,21,08,31,10.10
2009,05,21,08,32,10.10
2009,05,21,08,33,10.10
2009,05,21,08,34,10.20
2009,05,21,08,35,10.20
2009,05,21,08,36,10.30
2009,05,21,08,37,10.30
2009,05,21,08,38,10.30
2009,05,21,08,39,10.30
2009,05,21,08,40,10.40
2009,05,21,08,41,10.40
2009,05,21,08,42,10.40
2009,05,21,08,43,10.40
2009,05,21,08,44,10.40
2009,05,21,08,45,10.40
2009,05,21,08,46,10.40
2009,05,21,08,47,10.40
2009,05,21,08,48,10.50
2009,05,21,08,49,10.60
2009,05,21,08,50,10.70
2009,05,21,08,51,10.70
2009,05,21,08,52,10.80
2009,05,21,08,53,10.80
2009,05,21,08,54,10.80
2009,05,21,08,55,10.90
2009,05,21,08,56,10.90
2009,05,21,08,57,11.00
2009,05,21,08,58,11.00
2009,05,21,08,59,11.00
2009,05,21,09,00,11.00
2009,05,21,09,01,11.00
2009,05,21,09,02,11.00
2009,05,21,09,03,11.00
2009,05,21,09,04,11.00
2009,05,21,09,05,11.00
2009,05,21,09,06,11.00
2009,05,21,09,07,11.10
2009,05,21,09,08,11.10
2009,05,21,09,09,11.20
2009,05,21,09,10,11.30
2009,05,21,09,11,11.30
2009,05,21,09,12,11.30
2009,05,21,09,13,11.20
2009,05,21,09,14,11.20
2009,05,21,09,15,11.20
2009,05,21,09,16,11.20
2009,05,21,09,17,11.20
2009,05,21,09,18,11.20
2009,05,21,09,19,11.20
2009,05,21,09,20,11.20
2009,05,21,09,21,11.20
2009,05,21,09,22,11.10
2009,05,21,09,23,11.10
2009,05,21,09,24,11.10
2009,05,21,09,25,11.10
2009,05,21,09,26,11.10
2009,05,21,09,27,11.10
2009,05,21,09,28,11.20
2009,05,21,09,29,11.20
2009,05,21,09,30,11.30
2009,05,21,09,31,11.30
2009,05,21,09,32,11.30
2009,05,21,09,33,11.30
2009,05,21,09,34,11.30
2009,05,21,09,35,11.30
2009,05,21,09,36,11.20
2009,05,21,09,37,11.30
2009,05,21,09,38,11.30
2009,05,21,09,39,11.40
2009,05,21,09,40,11.50
2009,05,21,09,41,11.60
2009,05,21,09,42,11.70
2009,05,21,09,43,11.90
2009,05,21,09,44,12.10
2009,05,21,09,45,12.20
2009,05,21,09,46,12.20
2009,05,21,09,47,12.20
2009,05,21,09,48,12.00
2009,05,21,09,49,11.90
2009,05,21,09,50,11.90
2009,05,21,09,51,11.90
2009,05,21,09,52,11.90
2009,05,21,09,53,11.90
2009,05,21,09,54,12.00
2009,05,21,09,55,12.00
2009,05,21,09,56,12.00
2009,05,21,09,57,12.00
2009,05,21,09,58,12.00
2009,05,21,09,59,11.90
2009,05,21,10,00,11.90
2009,05,21,10,01,11.90
2009,05,21,10,02,11.80
2009,05,21,10,03,11.80
2009,05,21,10,04,11.90
2009,05,21,10,05,12.00
2009,05,21,10,06,12.20
2009,05,21,10,07,12.40
2009,05,21,10,08,12.50
2009,05,21,10,09,12.60
2009,05,21,10,10,12.60
2009,05,21,10,11,12.70
2009,05,21,10,12,12.60
2009,05,21,10,13,12.50
2009,05,21,10,14,12.40
2009,05,21,10,15,12.40
2009,05,21,10,16,12.40
2009,05,21,10,17,12.40
2009,05,21,10,18,12.40
2009,05,21,10,19,12.30
2009,05,21,10,20,12.30
2009,05,21,10,21,12.30
2009,05,21,10,22,12.40
2009,05,21,10,23,12.40
2009,05,21,10,24,12.50
2009,05,21,10,25,12.70
2009,05,21,10,26,12.90
2009,05,21,10,27,13.10
2009,05,21,10,28,13.30
2009,05,21,10,29,13.50
2009,05,21,10,30,13.60
2009,05,21,10,31,13.50
2009,05,21,10,32,13.40
2009,05,21,10,33,13.30
2009,05,21,10,34,13.10
2009,05,21,10,35,13.00
2009,05,21,10,36,12.90
2009,05,21,10,37,12.80
2009,05,21,10,38,12.80
2009,05,21,10,39,12.80
2009,05,21,10,40,12.90
2009,05,21,10,41,13.10
2009,05,21,10,42,13.30
2009,05,21,10,43,13.40
2009,05,21,10,44,13.40
2009,05,21,10,45,13.30
2009,05,21,10,46,13.20
2009,05,21,10,47,13.20
2009,05,21,10,48,13.30
2009,05,21,10,49,13.40
2009,05,21,10,50,13.50
2009,05,21,10,51,13.50
2009,05,21,10,52,13.50
2009,05,21,10,53,13.50
2009,05,21,10,54,13.40
2009,05,21,10,55,13.40
2009,05,21,10,56,13.30
2009,05,21,10,57,13.20
2009,05,21,10,58,13.10
2009,05,21,10,59,12.90
2009,05,21,11,00,12.80
2009,05,21,11,01,12.80
2009,05,21,11,02,12.70
2009,05,21,11,03,12.80
2009,05,21,11,04,12.80
2009,05,21,11,05,12.80
2009,05,21,11,06,13.00
2009,05,21,11,07,13.00
2009,05,21,11,08,12.90
2009,05,21,11,09,12.80
2009,05,21,11,10,12.80
2009,05,21,11,11,12.80
2009,05,21,11,12,12.80
2009,05,21,11,13,12.80
2009,05,21,11,14,12.80
2009,05,21,11,15,12.90
2009,05,21,11,16,13.00
2009,05,21,11,17,13.10
2009,05,21,11,18,13.20
2009,05,21,11,19,13.30
2009,05,21,11,20,13.40
2009,05,21,11,21,13.50
2009,05,21,11,22,13.50
2009,05,21,11,23,13.60
2009,05,21,11,24,13.60
2009,05,21,11,25,13.60
2009,05,21,11,26,13.60
2009,05,21,11,27,13.70
2009,05,21,11,28,13.60
2009,05,21,11,29,13.60
2009,05,21,11,30,13.60
2009,05,21,11,31,13.50
2009,05,21,11,32,13.50
2009,05,21,11,33,13.60
2009,05,21,11,34,13.60
2009,05,21,11,35,13.60
2009,05,21,11,36,13.60
2009,05,21,11,37,13.60
2009,05,21,11,38,13.60
2009,05,21,11,39,13.60
2009,05,21,11,40,13.60
2009,05,21,11,41,13.60
2009,05,21,11,42,13.50
2009,05,21,11,43,13.40
2009,05,21,11,44,13.40
2009,05,21,11,45,13.30
2009,05,21,11,46,13.50
2009,05,21,11,47,13.60
2009,05,21,11,48,13.70
2009,05,21,11,49,13.90
2009,05,21,11,50,14.00
2009,05,21,11,51,14.00
2009,05,21,11,52,13.90
2009,05,21,11,53,13.90
2009,05,21,11,54,14.00
2009,05,21,11,55,14.10
2009,05,21,11,56,14.20
2009,05,21,11,57,14.30
2009,05,21,11,58,14.30
2009,05,21,11,59,14.20
2009,05,21,12,00,14.20
2009,05,21,12,01,14.30
2009,05,21,12,02,14.30
2009,05,21,12,03,14.30
2009,05,21,12,04,14.40
2009,05,21,12,05,14.40
2009,05,21,12,06,14.50
2009,05,21,12,07,14.50
2009,05,21,12,08,14.40
2009,05,21,12,09,14.20
2009,05,21,12,10,14.10
2009,05,21,12,11,14.10
2009,05,21,12,12,14.10
2009,05,21,12,13,14.10
2009,05,21,12,14,14.20
2009,05,21,12,15,14.10
2009,05,21,12,16,14.00
2009,05,21,12,17,13.80
2009,05,21,12,18,13.90
2009,05,21,12,19,13.90
2009,05,21,12,20,14.10
2009,05,21,12,21,14.30
2009,05,21,12,22,14.40
2009,05,21,12,23,14.50
2009,05,21,12,24,14.60
2009,05,21,12,25,14.70
2009,05,21,12,26,14.70
2009,05,21,12,27,14.60
2009,05,21,12,28,14.70
2009,05,21,12,29,14.80
2009,05,21,12,30,15.00
2009,05,21,12,31,15.00
2009,05,21,12,32,15.00
2009,05,21,12,33,15.00
2009,05,21,12,34,15.00
2009,05,21,12,35,15.00
2009,05,21,12,36,15.00
2009,05,21,12,37,15.10
2009,05,21,12,38,15.30
2009,05,21,12,39,15.40
2009,05,21,12,40,15.40
2009,05,21,12,41,15.50
2009,05,21,12,42,15.60
2009,05,21,12,43,15.60
2009,05,21,12,44,15.50
2009,05,21,12,45,15.40
2009,05,21,12,46,15.30
2009,05,21,12,47,15.30
2009,05,21,12,48,15.30
2009,05,21,12,49,15.30
2009,05,21,12,50,15.00
2009,05,21,12,51,14.90
2009,05,21,12,52,14.80
2009,05,21,12,53,14.80
2009,05,21,12,54,14.90
2009,05,21,12,55,15.00
2009,05,21,12,56,15.00
2009,05,21,12,57,15.20
2009,05,21,12,58,15.20
2009,05,21,12,59,15.30
2009,05,21,13,00,15.40
2009,05,21,13,01,15.60
2009,05,21,13,02,15.60
2009,05,21,13,03,15.50
2009,05,21,13,04,15.30
2009,05,21,13,05,15.10
2009,05,21,13,06,15.20
2009,05,21,13,07,15.20
2009,05,21,13,08,15.30
2009,05,21,13,09,15.30
2009,05,21,13,10,15.30
2009,05,21,13,11,15.30
2009,05,21,13,12,15.40
2009,05,21,13,13,15.50
2009,05,21,13,14,15.70
2009,05,21,13,15,15.70
2009,05,21,13,16,15.70
2009,05,21,13,17,15.50
2009,05,21,13,18,15.40
2009,05,21,13,19,15.40
2009,05,21,13,20,15.40
2009,05,21,13,21,15.40
2009,05,21,13,22,15.50
2009,05,21,13,23,15.50
2009,05,21,13,24,15.40
2009,05,21,13,25,15.40
2009,05,21,13,26,15.40
2009,05,21,13,27,15.30
2009,05,21,13,28,15.30
2009,05,21,13,29,15.40
2009,05,21,13,30,15.40
2009,05,21,13,31,15.50
2009,05,21,13,32,15.60
2009,05,21,13,33,15.70
2009,05,21,13,34,15.80
2009,05,21,13,35,15.80
2009,05,21,13,36,15.70
2009,05,21,13,37,15.60
2009,05,21,13,38,15.50
2009,05,21,13,39,15.40
2009,05,21,13,40,15.40
2009,05,21,13,41,15.40
2009,05,21,13,42,15.50
2009,05,21,13,43,15.60
2009,05,21,13,44,15.50
2009,05,21,13,45,15.50
2009,05,21,13,46,15.30
2009,05,21,13,47,15.20
2009,05,21,13,48,15.00
2009,05,21,13,49,15.00
2009,05,21,13,50,14.90
2009,05,21,13,51,14.80
2009,05,21,13,52,14.80
2009,05,21,13,53,14.80
2009,05,21,13,54,14.80
2009,05,21,13,55,14.90
2009,05,21,13,56,15.00
2009,05,21,13,57,15.00
2009,05,21,13,58,15.00
2009,05,21,13,59,15.00
2009,05,21,14,00,15.00
2009,05,21,14,01,15.00
2009,05,21,14,02,15.00
2009,05,21,14,03,15.00
2009,05,21,14,04,15.00
2009,05,21,14,05,15.00
2009,05,21,14,06,15.20
2009,05,21,14,07,15.40
2009,05,21,14,08,15.40
2009,05,21,14,09,15.40
2009,05,21,14,10,15.20
2009,05,21,14,11,15.10
2009,05,21,14,12,15.10
2009,05,21,14,13,15.30
2009,05,21,14,14,15.40
2009,05,21,14,15,15.50
2009,05,21,14,16,15.40
2009,05,21,14,17,15.40
2009,05,21,14,18,15.40
2009,05,21,14,19,15.40
2009,05,21,14,20,15.30
2009,05,21,14,21,15.30
2009,05,21,14,22,15.30
2009,05,21,14,23,15.30
2009,05,21,14,24,15.40
2009,05,21,14,25,15.60
2009,05,21,14,26,15.80
2009,05,21,14,27,15.80
2009,05,21,14,28,15.90
2009,05,21,14,29,16.00
2009,05,21,14,30,16.10
2009,05,21,14,31,16.10
2009,05,21,14,32,16.00
2009,05,21,14,33,15.80
2009,05,21,14,34,15.70
2009,05,21,14,35,15.70
2009,05,21,14,36,15.80
2009,05,21,14,37,15.90
2009,05,21,14,38,16.00
2009,05,21,14,39,16.10
2009,05,21,14,40,16.20
2009,05,21,14,41,16.30
2009,05,21,14,42,16.20
2009,05,21,14,43,16.10
2009,05,21,14,44,16.00
2009,05,21,14,45,16.00
2009,05,21,14,46,16.00
2009,05,21,14,47,16.00
2009,05,21,14,48,15.90
2009,05,21,14,49,15.90
2009,05,21,14,50,15.90
2009,05,21,14,51,15.80
2009,05,21,14,52,15.90
2009,05,21,14,53,16.00
2009,05,21,14,54,16.20
2009,05,21,14,55,16.30
2009,05,21,14,56,16.10
2009,05,21,14,57,16.10
2009,05,21,14,58,16.10
2009,05,21,14,59,16.10
2009,05,21,15,00,16.20
2009,05,21,15,01,16.30
2009,05,21,15,02,16.30
2009,05,21,15,03,16.40
2009,05,21,15,04,16.40
2009,05,21,15,05,16.40
2009,05,21,15,06,16.30
2009,05,21,15,07,16.20
2009,05,21,15,08,16.20
2009,05,21,15,09,16.20
2009,05,21,15,10,16.10
2009,05,21,15,11,16.00
2009,05,21,15,12,16.10
2009,05,21,15,13,16.10
2009,05,21,15,14,16.20
2009,05,21,15,15,16.20
2009,05,21,15,16,16.30
2009,05,21,15,17,16.30
2009,05,21,15,18,16.30
2009,05,21,15,19,16.30
2009,05,21,15,20,16.40
2009,05,21,15,21,16.40
2009,05,21,15,22,16.50
2009,05,21,15,23,16.50
2009,05,21,15,24,16.40
2009,05,21,15,25,16.20
2009,05,21,15,26,16.20
2009,05,21,15,27,16.10
2009,05,21,15,28,16.00
2009,05,21,15,29,16.00
2009,05,21,15,30,16.00
2009,05,21,15,31,16.10
2009,05,21,15,32,16.30
2009,05,21,15,33,16.40
2009,05,21,15,34,16.50
2009,05,21,15,35,16.60
2009,05,21,15,36,16.60
2009,05,21,15,37,16.60
2009,05,21,15,38,16.50
2009,05,21,15,39,16.50
2009,05,21,15,40,16.50
2009,05,21,15,41,16.50
2009,05,21,15,42,16.50
2009,05,21,15,43,16.50
2009,05,21,15,44,16.60
2009,05,21,15,45,16.60
2009,05,21,15,46,16.70
2009,05,21,15,47,16.70
2009,05,21,15,48,16.80
2009,05,21,15,49,16.80
2009,05,21,15,50,16.80
2009,05,21,15,51,16.80
2009,05,21,15,52,16.80
2009,05,21,15,53,16.80
2009,05,21,15,54,16.80
2009,05,21,15,55,16.90
2009,05,21,15,56,16.90
2009,05,21,15,57,16.90
2009,05,21,15,58,16.80
2009,05,21,15,59,16.80
2009,05,21,16,00,16.80
2009,05,21,16,01,16.80
2009,05,21,16,02,16.80
2009,05,21,16,03,16.90
2009,05,21,16,04,16.90
2009,05,21,16,05,16.90
2009,05,21,16,06,16.90
2009,05,21,16,07,16.90
2009,05,21,16,08,16.90
2009,05,21,16,09,16.80
2009,05,21,16,10,16.70
2009,05,21,16,11,16.70
2009,05,21,16,12,16.70
2009,05,21,16,13,16.70
2009,05,21,16,14,16.70
2009,05,21,16,15,16.80
2009,05,21,16,16,16.80
2009,05,21,16,17,16.90
2009,05,21,16,18,17.00
2009,05,21,16,19,17.00
2009,05,21,16,20,17.00
2009,05,21,16,21,16.80
2009,05,21,16,22,16.80
2009,05,21,16,23,16.80
2009,05,21,16,24,16.90
2009,05,21,16,25,16.80
2009,05,21,16,26,16.80
2009,05,21,16,27,16.70
2009,05,21,16,28,16.70
2009,05,21,16,29,16.70
2009,05,21,16,30,16.70
2009,05,21,16,31,16.80
2009,05,21,16,32,16.90
2009,05,21,16,33,17.00
2009,05,21,16,34,17.10
2009,05,21,16,35,17.10
2009,05,21,16,36,17.10
2009,05,21,16,37,17.20
2009,05,21,16,38,17.20
2009,05,21,16,39,17.20
2009,05,21,16,40,17.20
2009,05,21,16,41,17.20
2009,05,21,16,42,17.30
2009,05,21,16,43,17.20
2009,05,21,16,44,17.20
2009,05,21,16,45,17.20
2009,05,21,16,46,17.10
2009,05,21,16,47,17.00
2009,05,21,16,48,17.00
2009,05,21,16,49,17.00
2009,05,21,16,50,17.00
2009,05,21,16,51,17.00
2009,05,21,16,52,17.00
2009,05,21,16,53,16.90
2009,05,21,16,54,16.80
2009,05,21,16,55,16.80
2009,05,21,16,56,16.80
2009,05,21,16,57,16.80
2009,05,21,16,58,16.80
2009,05,21,16,59,16.90
2009,05,21,17,00,16.90
2009,05,21,17,01,16.90
2009,05,21,17,02,16.90
2009,05,21,17,03,16.80
2009,05,21,17,04,16.70
2009,05,21,17,05,16.70
2009,05,21,17,06,16.60
2009,05,21,17,07,16.60
2009,05,21,17,08,16.70
2009,05,21,17,09,16.70
2009,05,21,17,10,16.80
2009,05,21,17,11,16.80
2009,05,21,17,12,16.90
2009,05,21,17,13,17.00
2009,05,21,17,14,17.00
2009,05,21,17,15,17.00
2009,05,21,17,16,17.10
2009,05,21,17,17,17.10
2009,05,21,17,18,17.00
2009,05,21,17,19,16.90
2009,05,21,17,20,16.90
2009,05,21,17,21,16.80
2009,05,21,17,22,16.80
2009,05,21,17,23,16.80
2009,05,21,17,24,16.80
2009,05,21,17,25,16.80
2009,05,21,17,26,16.80
2009,05,21,17,27,16.70
2009,05,21,17,28,16.70
2009,05,21,17,29,16.70
2009,05,21,17,30,16.70
2009,05,21,17,31,16.60
2009,05,21,17,32,16.60
2009,05,21,17,33,16.60
2009,05,21,17,34,16.60
2009,05,21,17,35,16.50
2009,05,21,17,36,16.50
2009,05,21,17,37,16.60
2009,05,21,17,38,16.60
2009,05,21,17,39,16.60
2009,05,21,17,40,16.70
2009,05,21,17,41,16.70